Regional Weather Roundup
Issued by NWS

Current Version | Previous Version | Text Only | Print | Product List | Glossary On
Versions: 1 2 3 4 5 6 7 8 9 10 11 12 13 14 15 16 17 18 19 20 21 22 23 24 25 26 27 28 29 30 31 32 33 34 35 36 37 38 39 40 41 42 43 44 45 46 47 48 49 50
000
ASUS42 KFFC 302303
RWRGA
WEATHER ROUNDUP FOR GEORGIA
NATIONAL WEATHER SERVICE PEACHTREE CITY GA
700 PM EDT SAT MAY 30 2015

NOTE: "FAIR" INDICATES FEW OR NO CLOUDS BELOW 12,000 FEET WITH NO
SIGNIFICANT WEATHER AND/OR OBSTRUCTIONS TO VISIBILITY.

* = USE WITH CAUTION. THE STATIONS MARKED WITH AN ASTERISK MAY NOT
REPORT WEATHER SUCH AS PRECIPITATION, FOG, OR THUNDER AND ARE NOT
QUALITY CONTROLLED BY NWS.

THE REMARK "TC" DENOTES TEMPERATURE READING IN DEGREES CELSIUS.

GAZ001>058-310000-
NORTH GEORGIA

CITY           SKY/WX    TMP DP  RH WIND       PRES   REMARKS
ATLANTA        MOSUNNY   84  61  45 S8        30.07F
ATHENS         SUNNY     84  61  45 VRB5      30.08F
CHAMBLEE       SUNNY     83  62  49 S8        30.07F
PEACHTREE CITY SUNNY     85  63  47 S3        30.07F
ROME           MOSUNNY   84  62  47 S5        30.03F
WEST ATLANTA   MOSUNNY   84  62  47 S5        30.06F
GAINESVILLE    MOSUNNY   79  64  60 E7        30.12F
CARTERSVILLE   PTSUNNY   81  63  54 S6        30.06F


CITY           SKY/WX    TMP DP  RH WIND       PRES   REMARKS
DALTON*        SUNNY     82  64  54 SE7       30.05S
LAWRENCEVILLE* PTSUNNY   81  61  50 CALM      30.07F
MARIETTA       PTSUNNY   82  65  56 S7        30.07F
KENNESAW*      MOSUNNY   82  64  54 S6        30.07F
BLAIRSVILLE*     N/A     77  36  23 SE10      30.13F
$$

GAZ059>098-102>109-310000-
CENTRAL GEORGIA

CITY           SKY/WX    TMP DP  RH WIND       PRES   REMARKS
AUGUSTA-BUSH   MOSUNNY   85  66  53 S9        30.05F
AUGUSTA-DANIEL SUNNY     86  66  51 SE10      30.07S
COLUMBUS       PTSUNNY   85  60  42 CALM      30.03F
MACON          MOSUNNY   86  62  44 SE6       30.04F
ROBINS AFB     SUNNY     87  65  48 E2        30.03F


CITY           SKY/WX    TMP DP  RH WIND       PRES   REMARKS
LAGRANGE*      CLOUDY    89  70  54 SE7       30.05F HX  94
SYLVANIA*      MOSUNNY   80  73  78 SE6       30.10S
MILLEDGEVILLE* MOSUNNY   86  64  48 CALM      30.06S
$$

GAZ099>101-110>166-310000-
SOUTH GEORGIA

CITY           SKY/WX    TMP DP  RH WIND       PRES   REMARKS
SAVANNAH       PTSUNNY   77  68  73 SE13      30.10F
VALDOSTA       MOSUNNY   84  71  65 E6        30.03F
ALMA           MOSUNNY   83  66  56 E6        30.05F
FT STEWART     MOSUNNY   80  69  68 E7        30.07S
ALBANY         SUNNY     89  59  36 VRB3      30.04F
HUNTER AFB     DRIZZLE   79  70  73 E12       30.07F
MOODY AFB      TSTM      79  72  77 NE6       30.02S
BRUNSWICK      MOSUNNY   81  68  65 E13       30.08F


CITY           SKY/WX    TMP DP  RH WIND       PRES   REMARKS
BAINBRIDGE*    SUNNY     93  64  38 CALM      30.02F HX  95
MOULTRIE*      SUNNY     90  61  37 CALM      30.03F
VIDALIA*       MOSUNNY   82  68  61 SE8       30.07F
WAYCROSS*      PTSUNNY   81  73  75 SE7       30.06F
DOUGLAS*       MOSUNNY   86  66  51 E9        30.06S
$$


USA.gov is the U.S. government's official web portal to all federal, state and local government web resources and services.